Other Public Products
Issued by NWS Grand Forks, ND

Home | Current Version | Previous Version | Text Only | Print | Product List | Glossary Off
Versions: 1 2 3 4 5 6 7 8 9 10 11 12 13 14 15 16 17 18 19 20 21 22 23 24 25 26 27 28 29 30 31 32 33 34 35 36 37 38 39 40 41 42 43 44 45 46 47 48 49 50

451
FPUS83 KFGF 201031
OPUFGF
PRAIRIE TO PINES WEATHER ROUNDUP
NATIONAL WEATHER SERVICE EASTERN NORTH DAKOTA/GRAND FORKS ND
400 AM CST MON FEB 20 2017

 **SATELLITE DATA USED TO AUGMENT SKY COVER AT AUTOMATED STATIONS**
 *****  WEATHER ACROSS EASTERN NORTH DAKOTA  *****

CITY           SKY/WX    TMP DP  RH WIND       PRES   REMARKS
GRAND FORKS    HAZE      39  34  82 SE3       29.57S VSB 3/4
GRAND FORKS AF FAIR      39  39 100 S6        29.57F FOG
GRAND CITY NWS NOT AVBL
BUXTON         NOT AVBL
DEVILS LAKE    FOG       34  34 100 W6        29.56S VSB 1/4
FARGO          LGT RAIN  53  49  86 S20G25    29.60R
WAHPETON ARPT  CLOUDY    46  45  93 SE16      29.60F
$$

 *****  WEATHER ACROSS CENTRAL AND WESTERN NORTH DAKOTA  *****

CITY           SKY/WX    TMP DP  RH WIND       PRES   REMARKS
JAMESTOWN      FOG       40  40 100 S3        29.53F VSB 1/2
BISMARCK       LGT RAIN  37  35  92 CALM      29.57R
MINOT          CLOUDY    35  33  92 NW12      29.57R
MINOT AFB      CLOUDY    32  32 100 NW13      29.57S WCI  22
GARRISON         N/A     35  32  88 CALM      29.57R
WILLISTON      MOCLDY    34  32  92 VRB3      29.65R
DICKINSON      CLOUDY    36  33  89 W13       29.59R
HETTINGER      MOCLDY    39  34  82 NW13      29.62R
$$

 *****  OTHER OBSERVATIONS NORTHEAST NORTH DAKOTA  *****

CITY           SKY/WX    TMP DP  RH WIND       PRES   REMARKS
WALHALLA       NOT AVBL
LANGDON        NOT AVBL
CAVALIER       CLOUDY    36  36 100 S3        29.59R FOG
GRAFTON        FOG       34  34 100 E5        29.59F VSB 1/2
CANDO          NOT AVBL
FORT TOTTEN      N/A     37  37 100 S2        29.95S
ROLLA          FOG       32  32 100 CALM      29.55S VSB 1/2
RUGBY            N/A     32  32 100 NW9       29.58R FOG     WCI  24
 ***** THE ABOVE OBSERVATIONS ARE NON NWS ARE NOT QUALITY
        CONTROLLED AND MAY MIS-REPORT RAIN FOR SNOW...
$$

 *****  OTHER OBSERVATIONS SOUTHEAST NORTH DAKOTA *****

CITY           SKY/WX    TMP DP  RH WIND       PRES   REMARKS
COOPERSTOWN    FOG       37  37 100 S7        29.55F VSB 1/4
VALLEY CITY    FAIR      41  41 100 S6        29.57S FOG
OAKES          NOT AVBL
GWINNER        PTSUNNY   50  48  93 S14       29.56F
SHEYENNE NWR     N/A     46  44  94 S6        29.95S
BUFFALO        NOT AVBL
WYNDMERE         N/A     48  48 100 SE13        N/A
 ***** THE ABOVE OBSERVATIONS ARE NON NWS ARE NOT QUALITY
       CONTROLLED AND MAY MIS-REPORT RAIN FOR SNOW...
$$

  *****  WEATHER ACROSS NORTHERN MINNESOTA  *****

CITY           SKY/WX    TMP DP  RH WIND       PRES   REMARKS
FLAG ISLAND    FAIR      37  30  75 SE8       29.66F
WARROAD        FAIR      39  36  87 SE8       29.66S
ROSEAU         FAIR      41  36  81 SE9       29.64R
HALLOCK        FAIR      37  36  93 SE9       29.59R
THF RVR FALLS  FAIR      40  37  89 SE14      29.62F
HALSTAD          N/A     48  46  94 S9          N/A
FOSSTON        LGT RAIN  45  41  87 SE8       29.63S
BAUDETTE       FAIR      41  32  70 SE12      29.67F
WASKISH        FAIR      45  37  76 SE12      29.70R
CROOKSTON      LGT RAIN  46  45  93 S15       29.60R
$$
  *****  WEATHER ACROSS CENTRAL AND WEST MINNESOTA  *****

CITY           SKY/WX    TMP DP  RH WIND       PRES   REMARKS
BEMIDJI        CLOUDY    39  34  81 SE10      29.71R
PARK RAPIDS    MOCLDY    43  38  82 S7        29.71R
WADENA         FAIR      43  41  93 SE7       29.70S
DETROIT LAKES  FAIR      45  43  93 SE13      29.66F THUNDER FOG
MOORHEAD       TSTM      52  48  87 S22       29.65R
FERGUS FALLS   FAIR      50  46  87 SE12      29.69F THUNDER
ELBOW LAKE     FAIR      49  47  93 E15       29.67F
MORRIS MN      FAIR      48  46  93 SE9       29.68F
STAPLES        FAIR      45  43  93 SE7       29.73S
WHEATON        MOCLDY    50  46  87 SE17      29.64F
$$
  *****  WEATHER ELSEWHERE ACROSS MINNESOTA  *****

CITY           SKY/WX    TMP DP  RH WIND       PRES   REMARKS
DULUTH         FAIR      39  32  76 E16       29.87F
INTRNTL FALLS  FAIR      43  32  65 SE12      29.74F
ELY            FAIR      39  30  70 SE12      29.87F
CLOQUET        CLOUDY    37  30  75 SE5       29.88R
BRAINERD       CLOUDY    43  36  76 SE10      29.78F
HIBBING        MOCLDY    40  33  76 SE13      29.82F
ALEXANDRIA     FAIR      48  46  93 SE12      29.72R
SAINT CLOUD    FAIR      47  43  86 SE9       29.78R
MINNEAPOLIS    MOCLDY    51  42  71 SE16G23   29.84F
$$

  *****  WEATHER ACROSS SOUTH DAKOTA  *****

CITY           SKY/WX    TMP DP  RH WIND       PRES   REMARKS
SIOUX FALLS    CLOUDY    54  52  93 S9        29.72R
BROOKINGS      CLOUDY    50  48  93 S14       29.69R
WATERTOWN      MOCLDY    47  46  97 S13       29.63F
HURON          CLOUDY    52  50  93 S14       29.59F
SISSETON         N/A     53  49  86 S21       29.60F
ABERDEEN       CLOUDY    50  45  83 SE10      29.57S
MITCHELL       FAIR      52  50  93 S15       29.63F
PIERRE         FAIR      46  40  79 CALM      29.50F
MOBRIDGE       MOCLDY    41  34  76 SE8       29.51R
RAPID CITY     FAIR      48  36  63 NW22      29.64R
$$

  *****  SOME WEATHER IN NEARBY STATES *****

CITY           SKY/WX    TMP DP  RH WIND       PRES   REMARKS
GLASGOW MT     FAIR      28  26  92 NW7       29.66R WCI  21
GREAT FALLS MT FAIR      31  23  72 SW12      29.71R WCI  22
CHEYENNE WY    FAIR      38  13  35 NW16G24   29.82R
SCOTTSBLUFF NE FAIR      45  25  45 W17G28    29.75R
OMAHA NE       LGT RAIN  58  53  84 SE16      29.74F
DES MOINES IA  CLOUDY    58  49  72 SE8       29.86F
DAVENPORT IA   FAIR      50  47  89 SE13      30.00F
CHICAGO IL     CLOUDY    44  39  82 CALM      30.10S
EAU CLAIRE WI  FAIR      47  36  65 SE9       29.92F
LA CROSSE WI   FAIR      52  42  69 SE7       29.94F
$$

  *****  SOME NATIONAL WEATHER *****

CITY           SKY/WX    TMP DP  RH WIND       PRES   REMARKS
LA GUARDIA NY  FAIR      47  32  56 NW12      30.07R
RALEIGH NC     FAIR      46  40  79 CALM      30.15R
ATLANTA GA     FAIR      51  45  79 E3        30.12S
NEW ORLEANS LA CLOUDY    67  66  97 SE10      30.03S
OKLAHOMA CITY  LGT RAIN  55  54  96 SE13      29.85S
ALBUQUERQUE NM MOCLDY    42  33  70 CALM      30.03S
SALT LAKE CITY FAIR      44  36  73 S15       29.94R
LOS ANGELES CA LGT RAIN  53  52  96 E6        30.18S FOG
BOISE ID       CLOUDY    45  33  63 SE21      29.77S
SEATTLE WA     CLOUDY    42  37  82 CALM      29.60S
$$

*** WEATHER ACROSS MANITOBA...SASKATCHEWAN AND ONTARIO ***
                ***ONTARIO***

CITY           SKY/WX    TMP DP  RH WIND       PRES   REMARKS
GERALDTON      MOCLDY    27  23  86 SE6       30.17S WCI  20
THUNDER BAY    MOCLDY    34  32  93 E14       30.11F WCI  24
SIOUX LOOKOUT  MOCLDY    37  27  65 SE9       29.84F
TORONTO        CLEAR     32  28  86 N10       30.26R WCI  24
BIG TROUT LK   CLOUDY    25  23  93 SE12G17   30.03F WCI  14
PICKLE LAKE    NOT AVBL
DRYDEN         CLOUDY    39  30  70 SE15G23   29.78F
KENORA         MOCLDY    39  30  70 SE10      29.70F
$$
                *** MANITOBA***

CITY           SKY/WX    TMP DP  RH WIND       PRES   REMARKS
BRANDON        CLOUDY    32  32 100 N3        29.58S
DAUPHIN        CLOUDY    30  28  93 NW5       29.60S
ISLAND LAKE    FRZ RAIN  28  27  93 E8G17     29.80F WCI  20
PILOT MOUND      N/A     34  34 100 W5          N/A
THE PAS        CLOUDY    27  21  80 NE5       29.68F WCI  21
THOMPSON       CLOUDY    21  19  93 E8        29.83F WCI  12
WINNIPEG       CLOUDY    39  36  87 S12       29.59S
LYNN LAKE      FLURRIES  18  16  93 E12       29.80F WCI   5
CHURCHILL      FLURRIES  12   9  85 E7        30.13F WCI   2
GILLAM         CLOUDY    19  18  93 E6        29.98F WCI  11
$$
                ***SASKATCHEWAN***

CITY           SKY/WX    TMP DP  RH WIND       PRES   REMARKS
ESTEVAN        CLOUDY    32  32 100 W13       29.61R FOG     WCI  22
KINDERSLEY     CLOUDY    30  30 100 SW6       29.58R FOG     WCI  24
LLOYDMINSTER   FOG       32  32 100 W10       29.52R VSB 3/4 WCI  24
PRINCE ALBERT  FLURRIES  28  27  93 E9        29.58S WCI  20
REGINA         FOG       32  32 100 S8        29.60R VSB 3/8 WCI  25
YORKTON        FOG       30  28  93 NW3       29.60S VS



USA.gov is the U.S. government's official web portal to all federal, state and local government web resources and services.